Wind_Speed
13 17 16 13 13 14 14 15 16 16 19 19 18 17 18 19 18 19 19 18 16 17 16 17 18 19 20 21 23 22 23 23 23 25 27 28 29 29 30 33 32 29 29
15 17 17 15 15 17 17 19 15 17 19 18 17 16 15 15 16 17 17 15 14 15 16 16 17 18 19 21 22 23 23 24 26 28 29 31 31 30 33 34 33 31 31
15 16 19 18 18 17 16 16 16 17 17 17 17 15 13 13 14 14 14 14 13 14 14 15 16 17 19 20 21 22 23 25 27 28 30 31 30 29 34 35 33 32 32
15 16 19 20 19 15 14 15 17 16 15 16 14 14 13 13 14 13 13 13 13 14 13 14 16 17 18 19 21 23 25 27 29 29 31 31 29 31 35 36 33 32 34
16 15 18 20 20 16 13 16 17 16 14 14 12 12 12 12 13 13 12 13 14 14 12 14 15 16 17 19 21 24 27 29 30 30 31 31 30 33 38 38 33 33 35
18 15 16 18 21 18 14 16 16 15 12 11 11 11 11 12 14 14 12 13 13 13 12 13 15 16 17 19 22 25 28 31 31 31 32 33 31 34 38 39 35 33 36
18 17 16 18 19 19 15 15 15 13 11 9 10 10 10 11 13 15 15 14 14 14 12 14 16 16 18 20 23 26 29 30 31 32 33 33 32 34 39 39 36 35 38
18 20 20 19 20 18 16 14 12 12 10 8 9 9 10 10 12 16 16 16 16 16 14 14 17 17 19 21 23 27 29 30 30 32 33 33 31 33 38 40 37 36 39
20 20 21 22 21 18 16 14 11 11 11 7 8 9 10 11 13 16 17 17 16 16 14 14 17 19 19 21 23 26 28 29 30 32 32 32 31 34 38 40 38 37 37
22 22 24 23 20 19 16 13 12 12 11 8 7 9 10 11 12 15 17 17 16 15 13 13 16 19 19 21 22 25 27 28 30 31 31 32 32 34 37 39 37 36 37
23 23 25 21 20 19 16 14 13 13 11 10 9 8 9 9 12 15 16 17 16 14 12 13 16 18 20 21 23 25 26 28 29 30 31 31 32 33 37 38 36 36 36
28 24 24 23 21 19 18 14 14 14 13 11 8 8 10 10 12 16 17 18 18 14 12 12 14 17 19 20 22 24 26 27 28 29 29 30 31 33 37 37 36 37 36
31 27 27 24 23 20 18 17 15 15 14 11 10 9 10 11 13 15 17 18 18 15 12 12 13 16 18 20 22 24 25 26 28 28 28 29 30 32 36 36 37 37 36
34 30 29 25 24 22 20 18 17 17 16 13 11 11 11 12 14 15 16 16 16 13 11 12 12 15 17 19 21 23 25 26 27 28 27 27 29 32 35 36 37 37 35
33 31 29 26 26 24 21 20 19 19 17 14 12 11 12 13 15 16 17 16 16 12 12 11 12 15 17 18 20 22 24 26 27 27 26 26 28 31 34 35 37 37 33
35 31 28 28 27 25 21 21 20 19 18 17 15 12 13 13 16 17 18 17 16 14 13 11 13 15 16 17 19 22 23 25 26 27 26 26 28 31 32 35 36 36 33
32 32 31 30 28 26 22 22 22 21 22 20 18 14 14 14 15 17 19 17 16 15 13 12 12 14 15 17 19 21 22 24 26 26 26 26 27 29 31 33 35 34 32
35 35 34 33 29 26 24 24 23 24 24 22 20 17 16 15 15 18 18 18 17 16 14 13 12 13 15 17 19 20 22 23 25 26 26 26 27 29 30 32 33 33 32
36 36 34 32 28 28 26 25 25 26 25 23 22 19 17 16 16 18 18 18 17 17 15 15 14 15 16 17 19 20 21 22 24 25 26 26 26 28 29 30 32 33 32
38 36 36 34 32 30 28 25 26 26 25 24 23 21 19 16 18 19 19 19 18 19 18 18 17 17 18 19 19 21 21 22 23 24 25 25 26 27 28 30 32 33 32
38 39 39 37 35 30 28 26 27 27 26 26 25 22 20 18 19 21 20 20 19 20 20 20 20 20 20 19 19 20 21 22 22 24 25 25 26 28 28 29 31 32 32
40 40 40 39 35 31 29 28 28 29 28 28 26 24 22 21 21 22 22 22 20 21 22 22 22 22 20 18 20 20 21 22 23 24 25 26 27 27 28 28 30 32 32
53 41 43 39 34 32 32 31 31 30 30 29 27 26 24 23 22 23 23 24 23 22 24 24 24 22 21 20 20 21 22 23 23 23 24 26 26 28 28 27 29 30 31
53 47 45 40 38 37 35 32 31 35 31 30 29 28 26 26 25 25 24 25 24 24 27 26 25 25 24 21 21 22 24 24 23 24 23 27 26 26 28 29 30 31 31
54 48 44 42 42 40 36 36 36 36 33 31 30 29 30 29 27 27 27 27 26 27 29 27 27 27 26 24 23 24 25 26 25 26 26 27 29 27 28 29 29 32 33
53 50 46 45 45 44 44 39 37 36 34 34 33 33 33 32 30 27 28 30 28 29 30 30 30 30 29 28 27 25 27 28 27 27 29 29 32 29 27 32 32 31 34
Wind_Direction
303 317 321 316 289 291 301 300 304 302 316 323 321 323 328 335 338 345 347 347 359 356 352 352 359 353 351 354 355 354 353 351 348 347 348 346 344 342 344 344 342 336 333
296 307 313 313 294 292 301 301 303 311 318 320 322 323 328 336 339 344 345 347 0 357 351 356 357 352 355 356 354 354 351 350 350 351 349 348 348 346 346 345 342 337 334
287 302 304 308 305 300 301 298 301 308 314 319 319 319 325 332 336 343 347 347 355 356 354 354 352 353 356 355 353 352 353 352 351 351 351 350 348 348 347 344 342 337 334
280 295 300 300 306 300 302 294 299 305 311 313 315 318 323 329 331 340 343 345 350 350 355 352 349 351 352 352 350 350 352 354 353 351 351 349 349 348 348 347 344 340 338
275 288 294 292 299 292 298 298 306 305 306 309 314 320 317 322 324 334 341 343 345 346 349 350 345 346 347 347 347 348 350 351 351 350 349 349 349 350 352 352 346 343 341
272 286 287 282 289 286 291 295 306 300 302 306 309 312 317 323 325 329 339 339 343 342 340 344 342 340 341 343 344 345 345 348 349 350 350 349 349 352 353 353 348 345 344
273 278 287 275 281 283 288 295 301 298 290 289 300 312 318 323 324 329 337 337 340 339 339 342 339 335 337 340 340 340 342 345 348 350 350 349 348 353 354 355 350 347 349
270 278 283 280 272 279 282 290 294 285 271 280 297 305 316 320 326 330 335 337 339 339 337 337 335 337 336 335 337 338 341 344 348 350 349 348 349 351 352 353 351 351 352
264 284 287 281 264 271 275 284 283 270 260 274 292 306 314 320 336 333 334 334 334 336 331 333 334 337 336 335 338 340 342 345 350 350 349 347 348 350 352 353 354 353 353
265 277 285 273 258 264 273 277 271 254 253 263 276 293 308 327 337 329 326 327 330 330 326 328 332 335 336 338 341 344 344 347 350 350 348 348 349 351 353 354 355 355 355
259 276 280 266 255 259 273 267 258 244 250 259 270 289 303 321 326 321 322 324 324 328 327 331 332 334 339 342 344 345 346 349 349 349 348 349 351 353 353 354 355 357 357
253 272 273 257 254 259 266 261 243 240 244 252 267 287 298 316 318 314 321 327 327 327 326 328 331 334 340 342 344 345 347 349 348 348 348 351 353 353 355 356 357 358 357
247 265 263 250 247 254 263 251 236 239 243 247 259 273 293 306 310 313 316 327 326 325 323 326 331 336 341 342 346 346 349 348 347 347 348 352 352 353 356 357 359 358 356
243 256 263 251 247 252 254 243 236 239 239 244 258 269 292 301 306 310 313 323 323 320 316 323 332 337 342 344 346 347 348 347 346 345 347 351 352 353 356 358 360 359 354
244 255 256 245 245 252 249 239 238 241 241 243 255 267 287 300 305 309 312 319 319 313 314 322 330 338 342 345 347 348 348 347 345 345 346 348 352 352 355 359 359 360 355
242 252 247 237 244 251 247 240 241 241 242 243 249 258 275 289 299 306 309 314 316 306 308 320 330 336 341 344 347 347 347 346 346 345 344 344 349 352 354 358 359 359 355
238 243 237 232 238 248 242 238 240 239 241 244 250 257 269 278 291 299 303 306 306 304 306 315 326 332 336 339 344 346 346 345 345 344 342 342 347 349 353 357 358 358 355
233 235 232 231 236 242 237 235 238 241 242 245 251 257 267 274 285 290 299 301 301 304 305 308 317 323 327 332 337 341 342 343 343 342 339 341 343 346 351 355 356 356 354
229 233 234 234 238 238 235 233 234 237 240 247 250 256 262 269 278 286 296 297 294 296 299 302 310 314 319 322 327 333 337 339 340 338 338 340 341 343 346 351 352 354 354
229 233 233 232 236 235 234 233 237 240 241 244 250 256 262 268 275 283 290 293 289 290 293 298 303 307 311 315 320 326 330 334 334 333 335 335 339 339 343 348 350 351 353
228 229 230 230 234 233 233 233 234 237 239 244 250 255 261 266 273 279 286 288 289 287 289 293 296 300 305 310 315 321 323 325 328 328 330 331 333 336 341 343 347 348 349
226 225 228 230 233 232 234 236 236 236 237 242 248 254 259 263 270 277 282 285 284 284 287 292 293 296 301 306 311 315 317 319 323 324 324 327 328 332 334 338 340 344 346
220 231 231 227 229 231 237 239 238 238 239 243 248 254 259 262 268 271 279 285 285 287 289 293 295 296 298 303 307 309 311 313 315 318 320 321 324 326 328 333 333 339 340
223 233 232 223 227 232 234 236 239 244 243 246 250 256 261 264 267 269 277 283 286 288 288 291 294 294 295 297 298 301 304 306 310 312 315 314 319 318 321 326 330 333 336
226 239 237 227 229 232 232 237 241 243 243 246 252 257 261 264 268 270 274 280 285 287 288 289 289 290 291 292 293 296 300 302 305 307 309 309 313 316 317 321 326 328 329
233 241 235 231 229 230 236 235 240 240 242 249 254 258 259 261 267 272 276 280 284 286 290 287 287 288 289 290 291 293 295 297 303 304 309 309 308 311 312 314 319 323 324
Height
5869 5869 5868 5867 5865 5864 5865 5865 5864 5863 5862 5859 5857 5854 5852 5850 5848 5845 5842 5839 5835 5834 5832 5829 5826 5824 5822 5820 5816 5813 5810 5807 5803 5799 5795 5791 5786 5781 5777 5771 5766 5761 5756
5866 5867 5866 5866 5863 5862 5862 5861 5861 5859 5858 5856 5854 5853 5851 5848 5846 5844 5841 5839 5835 5833 5831 5828 5825 5823 5821 5819 5816 5813 5809 5806 5802 5798 5793 5788 5783 5778 5773 5768 5762 5757 5752
5864 5863 5864 5864 5862 5860 5859 5858 5858 5856 5855 5854 5853 5851 5849 5847 5845 5843 5841 5838 5835 5832 5829 5827 5825 5822 5819 5817 5815 5812 5809 5805 5801 5796 5791 5786 5781 5776 5771 5766 5760 5754 5748
5861 5860 5860 5860 5860 5859 5858 5857 5855 5854 5853 5852 5851 5850 5848 5846 5844 5842 5840 5837 5834 5832 5828 5826 5824 5821 5819 5816 5814 5811 5808 5804 5799 5794 5789 5784 5779 5774 5769 5762 5756 5750 5744
5858 5857 5857 5856 5856 5857 5857 5855 5853 5852 5850 5850 5849 5848 5847 5845 5843 5841 5839 5835 5832 5830 5827 5825 5823 5820 5818 5816 5813 5810 5806 5802 5797 5793 5787 5782 5776 5771 5766 5759 5753 5747 5741
5854 5854 5854 5854 5853 5853 5854 5852 5851 5849 5848 5848 5848 5847 5846 5844 5841 5839 5837 5834 5831 5829 5826 5824 5821 5819 5817 5814 5811 5808 5804 5800 5795 5790 5785 5779 5774 5769 5763 5757 5750 5744 5737
5851 5850 5851 5850 5850 5851 5850 5849 5848 5847 5846 5846 5846 5845 5844 5842 5839 5837 5835 5833 5829 5827 5824 5822 5820 5817 5815 5812 5809 5806 5803 5798 5793 5788 5783 5777 5772 5767 5761 5754 5747 5740 5733
5846 5846 5847 5846 5846 5847 5847 5846 5844 5844 5844 5844 5843 5842 5841 5840 5837 5835 5833 5830 5827 5824 5822 5821 5818 5815 5812 5810 5808 5805 5801 5796 5790 5786 5781 5775 5770 5765 5759 5752 5744 5737 5730
5842 5842 5842 5842 5842 5843 5843 5842 5841 5841 5842 5841 5840 5840 5838 5838 5834 5833 5830 5827 5825 5822 5820 5819 5816 5813 5811 5808 5806 5802 5798 5794 5789 5784 5778 5773 5768 5763 5756 5749 5741 5735 5728
5837 5836 5838 5837 5838 5838 5839 5838 5837 5837 5838 5838 5837 5837 5835 5834 5831 5831 5828 5826 5823 5821 5819 5816 5815 5812 5809 5807 5804 5800 5796 5791 5786 5781 5776 5771 5766 5760 5754 5746 5739 5732 5725
5831 5832 5833 5832 5833 5833 5834 5834 5833 5834 5835 5835 5834 5834 5833 5831 5830 5830 5826 5824 5822 5819 5816 5814 5812 5810 5807 5804 5801 5797 5793 5789 5784 5779 5774 5769 5764 5758 5751 5744 5737 5730 5723
5826 5827 5828 5827 5828 5829 5829 5829 5830 5831 5832 5832 5832 5831 5831 5829 5827 5827 5824 5820 5818 5816 5814 5812 5810 5808 5805 5802 5798 5794 5790 5786 5782 5777 5772 5767 5762 5756 5749 5742 5735 5728 5722
5819 5822 5822 5822 5822 5824 5825 5825 5826 5828 5829 5829 5828 5828 5827 5826 5825 5824 5822 5818 5816 5814 5812 5810 5808 5806 5802 5799 5796 5792 5788 5784 5780 5775 5770 5765 5760 5754 5747 5740 5733 5727 5720
5811 5814 5815 5815 5817 5819 5820 5821 5822 5824 5824 5825 5825 5824 5823 5823 5823 5821 5820 5816 5813 5811 5809 5807 5805 5803 5799 5796 5793 5789 5785 5781 5777 5773 5768 5763 5758 5752 5746 5739 5732 5725 5718
5802 5807 5809 5809 5811 5814 5815 5816 5817 5819 5820 5821 5822 5822 5820 5819 5819 5818 5816 5814 5811 5808 5806 5804 5802 5800 5796 5793 5790 5786 5782 5779 5774 5770 5766 5761 5756 5750 5744 5738 5731 5723 5717
5795 5800 5802 5803 5806 5808 5810 5812 5813 5815 5816 5817 5818 5817 5817 5816 5815 5814 5813 5810 5808 5805 5803 5801 5798 5796 5793 5790 5787 5784 5780 5776 5772 5768 5763 5758 5754 5748 5742 5736 5728 5722 5715
5788 5792 5795 5797 5799 5803 5804 5806 5809 5810 5812 5812 5813 5814 5813 5812 5811 5810 5809 5807 5805 5803 5800 5797 5795 5792 5790 5787 5785 5781 5776 5773 5769 5765 5760 5755 5751 5746 5740 5733 5726 5719 5712
5781 5784 5787 5791 5794 5797 5798 5800 5804 5806 5807 5807 5809 5809 5809 5809 5807 5807 5805 5803 5801 5799 5797 5795 5792 5789 5787 5784 5782 5778 5773 5769 5765 5761 5757 5753 5749 5743 5738 5731 5724 5717 5711
5774 5776 5780 5784 5788 5790 5792 5794 5797 5800 5801 5803 5804 5803 5804 5804 5803 5802 5800 5798 5796 5794 5793 5792 5789 5786 5783 5781 5778 5774 5770 5766 5762 5757 5754 5750 5746 5741 5735 5729 5722 5716 5709
5765 5768 5774 5777 5781 5783 5786 5788 5791 5794 5796 5797 5798 5797 5797 5798 5797 5796 5794 5793 5792 5790 5789 5787 5785 5783 5780 5777 5774 5771 5766 5762 5758 5754 5751 5747 5743 5738 5732 5727 5721 5714 5707
5756 5761 5765 5769 5774 5777 5780 5782 5785 5787 5789 5791 5791 5791 5791 5791 5792 5791 5789 5787 5787 5785 5783 5782 5780 5778 5776 5773 5769 5766 5762 5758 5754 5750 5747 5743 5739 5735 5730 5724 5718 5711 5705
5747 5751 5757 5762 5767 5770 5773 5776 5779 5780 5782 5784 5785 5785 5785 5786 5785 5785 5784 5782 5780 5779 5778 5777 5775 5773 5770 5767 5764 5761 5757 5754 5750 5747 5743 5740 5735 5731 5725 5720 5714 5708 5702
5741 5744 5749 5755 5761 5763 5766 5769 5772 5773 5774 5776 5778 5778 5779 5779 5778 5778 5777 5776 5775 5773 5772 5770 5769 5767 5764 5762 5759 5756 5753 5749 5745 5742 5738 5734 5731 5725 5721 5717 5711 5705 5699
5733 5737 5742 5747 5752 5756 5758 5762 5764 5766 5767 5769 5770 5771 5772 5772 5771 5771 5771 5770 5769 5768 5766 5764 5762 5760 5758 5755 5753 5750 5747 5743 5740 5736 5733 5728 5726 5720 5716 5711 5707 5702 5695
5725 5731 5735 5739 5744 5748 5751 5754 5757 5759 5759 5761 5762 5764 5764 5765 5765 5765 5764 5763 5762 5761 5760 5757 5755 5753 5751 5749 5746 5744 5742 5738 5735 5731 5727 5723 5719 5717 5712 5706 5702 5698 5692
5718 5722 5727 5731 5736 5740 5742 5746 5749 5751 5753 5753 5754 5755 5757 5757 5757 5757 5757 5757 5754 5753 5753 5751 5748 5746 5744 5742 5740 5737 5735 5732 5729 5726 5722 5719 5714 5712 5708 5702 5697 5693 5687